Woman Race

La Liégeoise - Liège (9.00 km)

dimanche 08 mars 2020

Vous pouvez trouver Le classement original sur : http://ultratiming.be
WOMAN RACE
LA LIÉGEOISE - LIÈGE
DISTANCE 9.00 km
dimanche 08 mars 2020
 
Place dos Nom Temps Temps/km Vitesse
01:00:00          
1 9127 DELHOUGNE ANNE-SOPHIE 0:41:51 04:39 12.90
2 9052 TELLINGS CLAUDIA 0:42:37 04:44 12.67
3 9368 NIESTEN CAROLE 0:44:03 04:54 12.26
4 9422 LEDENT MORGANE 0:44:05 04:54 12.25
5 9235 GEELEN BÉATRICE 0:45:28 05:03 11.87
6 9469 LONDOT DELPHINE 0:45:50 05:06 11.78
7 9428 CIANCABILLA LAURA 0:45:52 05:06 11.77
8 9130 MATHILDE DION 0:46:11 05:08 11.69
9 9374 GODINAS EMILIE 0:46:52 05:13 11.52
10 9539 DE MAESLOOSE FANNY 0:47:06 05:14 11.46
11 9392 VROMMAN CLOTILDE 0:47:52 05:19 11.28
12 9411 RAHMANI FATIMA 0:47:59 05:20 11.25
13 9527 DUMONT MARIANNE 0:48:37 05:24 11.10
14 9497 MAENHOUT MARINE 0:49:51 05:32 10.83
15 9353 RAMY SARAH 0:49:53 05:33 10.82
16 9361 FALLAIS ANNE 0:49:53 05:33 10.82
17 9039 MANCONI SERENA 0:50:03 05:34 10.79
18 9500 LISIK NATHALIE 0:50:11 05:35 10.76
19 9496 PIERLOT AUDREY 0:50:12 05:35 10.75
20 9377 JOACHIM MAUD 0:50:22 05:36 10.72
21 9215 VAN GORP EMELINE 0:50:44 05:38 10.64
22 9423 ROSU SARAH 0:50:53 05:39 10.61
23 9280 BURZA SELMA 0:50:54 05:39 10.61
24 9467 KARAKURT CAGLA 0:50:59 05:40 10.59
25 9440 DESDOITS LAURA 0:51:13 05:42 10.54
26 9086 KARA LAYLA 0:51:18 05:42 10.52
27 9369 HICK GÉRALDINE 0:51:30 05:43 10.48
28 9552 DESTORS EVA 0:51:34 05:44 10.47
29 9445 POLARD JOY 0:51:36 05:44 10.46
30 9129 NATHALIE VERSCHUEREN 0:51:44 05:45 10.44
31 9133 PERREE CELINE 0:51:44 05:45 10.44
32 9525 SANFILIPPO CORALIE 0:51:52 05:46 10.41
33 9427 COMITO LAURA 0:51:59 05:47 10.39
34 9384 SITTLER MARIE 0:52:02 05:47 10.38
35 9069 LANNERS DIANA 0:52:06 05:47 10.36
36 9528 DULIEU MARIANNE 0:52:09 05:48 10.35
37 9295 RAMAKERS STEPHANIE 0:52:11 05:48 10.35
38 9543 BATIS NAJOUA 0:52:12 05:48 10.34
39 9514 LOUIS FRANCE 0:52:22 05:49 10.31
40 9402 DISTER DIANE 0:52:30 05:50 10.28
41 9413 HANIN LISA 0:52:31 05:50 10.28
42 9414 SERVAIS VANIA 0:52:31 05:50 10.28
43 9537 LEGRAND ASTRID 0:52:51 05:52 10.22
44 9095 DE MEYER VERONIQUE 0:52:52 05:53 10.21
45 9307 TORREGROSSA ANNA 0:52:52 05:53 10.21
46 9279 DUCHENSNE DENISE 0:53:00 05:53 10.19
47 9035 SERVAIS MARIE 0:53:12 05:55 10.15
48 9495 FLIES CAMILLE 0:53:13 05:55 10.14
49 9189 KOUFF ISABELLE 0:53:28 05:57 10.10
50 9551 HENSENNE MARIE 0:53:29 05:57 10.09
51 9219 GOVERS JACQUELINE 0:53:29 05:57 10.09
52 9073 GRISART ELSA 0:53:32 05:57 10.08
53 9524 DECHEPY SOPHIE 0:53:40 05:58 10.06
54 9179 BRAHY RACHEL 0:53:42 05:58 10.05
55 9530 KANZAYIRE CARINE 0:53:45 05:58 10.04
56 9385 LE BELLER MARIE 0:53:51 05:59 10.03
57 9518 LEBOUTEILLER ÉLÉONORE 0:53:56 06:00 10.01
58 9217 STIENNON DOMINIQUE 0:53:57 06:00 10.01
59 9521 BRIEN LOUISE 0:54:02 06:00 9.99
60 9144 GRANDJEAN JUDITH 0:54:08 06:01 9.97
61 9145 RENQUIN FANFAN 0:54:08 06:01 9.97
62 9502 DOSSERAY CÉLINE 0:54:10 06:01 9.97
63 9265 THIRION ISALINE 0:54:29 06:03 9.91
64 9124 PONCIN TIFFANY 0:54:32 06:04 9.90
65 9128 KRUG STEPHANIE 0:54:36 06:04 9.89
66 9446 WEHENKEL MARIE 0:54:58 06:07 9.82
67 9214 PETERS KARINE 0:55:00 06:07 9.82
68 9515 LOUIS COLOMBINE 0:55:01 06:07 9.81
69 9507 LEKIEN LAURA 0:55:03 06:07 9.81
70 9053 WERNY KORALIE 0:55:03 06:07 9.81
71 9380 PREVERT VANESSA 0:55:04 06:07 9.80
72 9182 TURCK FRANCINE 0:55:12 06:08 9.78
73 9187 COBRAIVILLE SANDRINE 0:55:14 06:08 9.77
74 9334 FINCK CHRISTELLE 0:55:15 06:08 9.77
75 9417 BOUBNAN ANISA 0:55:19 06:09 9.76
76 9464 TILMAN MAUD 0:55:24 06:09 9.74
77 9412 ZAMORA MERCEDES 0:55:29 06:10 9.73
78 9341 JORIS NATHALIE 0:55:32 06:10 9.72
79 9505 JADOT JULIETTE 0:55:38 06:11 9.70
80 9059 VERTRUYEN STÉPHANIE 0:55:38 06:11 9.70
81 9294 DEGENBE FRANCOISE 0:55:39 06:11 9.70
82 9432 COIBION CLAUDINE 0:55:43 06:12 9.69
83 9140 CANIVET ALEXANDRA 0:55:57 06:13 9.65
84 9123 DAIX MEGAN 0:55:57 06:13 9.65
85 9070 HELLA AMÉLIE 0:56:20 06:16 9.58
86 9420 BILGIC IMANE 0:56:21 06:16 9.58
87 9484 FRANSSEN MATHILDE 0:56:30 06:17 9.56
88 9395 MOSSAY CHARLOTTE 0:56:31 06:17 9.55
89 9071 VOYEUX CÉLINE 0:56:34 06:17 9.54
90 9253 LASCHET MÉLANIE 0:56:38 06:18 9.53
91 9249 NOIROUX LAURENCE 0:56:39 06:18 9.53
92 9126 VAN LAEKEN EMEBET 0:56:46 06:19 9.51
93 9396 BAUDINET CATHERINE 0:56:49 06:19 9.50
94 9429 GOFFINET AUDREY 0:56:54 06:19 9.49
95 9435 KIENDREBEOGO KADJATOU 0:56:57 06:20 9.48
96 12098 DARIMONT AMANDINE 0:56:59 06:20 9.47
97 9437 GUILLAUME BÉRENGÈRE 0:57:03 06:20 9.46
98 9436 PALMAERTS MAGGY 0:57:04 06:21 9.46
99 9188 ARGUELLO SABRINA 0:57:06 06:21 9.45
100 9185 LEPIEMME DOROTHÉE 0:57:08 06:21 9.45
101 9358 GUBBELS JUSTINE 0:57:12 06:21 9.44
102 9426 SCHEEPERS VIVIANNE 0:57:16 06:22 9.43
103 9425 HENROT MORGANE 0:57:16 06:22 9.43
104 9490 STORMS FANNY 0:57:25 06:23 9.40
105 9491 ROZENBERG FANNY 0:57:25 06:23 9.40
106 9065 GILLES LAETITIA 0:57:25 06:23 9.40
107 9487 TINANT MARIANNE 0:57:25 06:23 9.40
108 9020 PRIGNON ZOÉ 0:57:28 06:23 9.39
109 9522 MASCIARELLI MELISSA 0:57:42 06:25 9.36
110 9336 LECLERCQ VICTORIA 0:57:43 06:25 9.35
111 9165 HALLET SEVERINE 0:57:50 06:26 9.33
112 9234 PEIRO AGRAMUNT ISABEL 0:58:02 06:27 9.30
113 9510 MICHAUD-NÉRARD GAËLLE 0:58:09 06:28 9.28
114 9409 DONVAL JUSTINE 0:58:12 06:28 9.28
115 9470 ANNE GERON 0:58:14 06:28 9.27
116 9264 DEMONCEAU SEVERINE 0:58:15 06:28 9.27
117 9471 GILSOUL SOPHIE 0:58:15 06:28 9.27
118 9263 DEMONCEAU LAURA 0:58:16 06:29 9.27
119 9529 BURLET VALERIE 0:58:18 06:29 9.26
120 9305 HARVENGT JULIE 0:58:24 06:29 9.24
121 9186 MATHIEU ELÉANORE 0:58:32 06:30 9.22
122 9546 GOD JULIE 0:58:33 06:30 9.22
123 9283 CRAHAY MYRIAM 0:58:41 06:31 9.20
124 9405 HALGAND MÉLANIE 0:58:43 06:32 9.19
125 9523 VAN REUSEL NATHALIE 0:58:43 06:32 9.19
126 9220 OGER MARIE-CLAIRE 0:58:50 06:32 9.18
127 9269 DHAUSSY LOANE 0:58:51 06:32 9.17
128 9378 MERNIER SOLÈNE 0:58:52 06:33 9.17
129 9239 KAIRIS SOPHIE 0:58:53 06:33 9.17
130 9238 BEAUVOIS PAULINE 0:58:55 06:33 9.16
131 9184 MOUZON CRISTEL 0:58:56 06:33 9.16
132 9450 CRAPANZANO LAURA 0:58:56 06:33 9.16
133 9016 THULEAU CHLOÉ 0:58:58 06:33 9.16
134 9534 COEME CHARLOTTE 0:58:59 06:33 9.15
135 9533 SOHIER VÉRONIQUE 0:59:00 06:33 9.15
136 9223 LUIS GÉRALDINE 0:59:05 06:34 9.14
137 9250 DOFFINY VALENTINE 0:59:05 06:34 9.14
138 9229 BARNICH CAROLINE 0:59:06 06:34 9.13
139 9501 DELATTE CECILE 0:59:07 06:34 9.13
140 9241 FAWAY ISABELLE 0:59:13 06:35 9.12
141 9375 GROSJEAN ISA 0:59:13 06:35 9.12
142 9362 NOWAKOWSKA MAJA 0:59:14 06:35 9.11
143 9191 RAMAKERS ISABELLE 0:59:24 06:36 9.09
144 9194 VERLEY VINCIANE 0:59:26 06:36 9.08
145 9049 FIORET MURIEL 0:59:28 06:37 9.08
146 9211 TILKIN CAROLINE 0:59:33 06:37 9.07
147 9168 MOUREAU ANNICK 0:59:34 06:37 9.06
148 9365 WOUTERS HÉLÈNE 0:59:38 06:38 9.05
149 9303 FERNANDEZ RAQUEL 0:59:44 06:38 9.04
150 9178 HANSOULLE LAURIE 0:59:49 06:39 9.03
151 9261 PION SOPHIE 0:59:51 06:39 9.02
152 9301 CHATELAIN ELISA 1:00:07 06:41 8.98
153 9553 WILLEMS CHARLOTTE 1:00:08 06:41 8.98
154 9340 FRINGS STÉPHANIE 1:00:17 06:42 8.96
155 9160 JAMAR VIRGINIE 1:00:34 06:44 8.91
156 9159 CAUCIG FRANCINE 1:00:37 06:44 8.91
157 9297 MARIN PAULINE 1:00:37 06:44 8.91
158 9213 LERUTH VINCIANE 1:00:38 06:44 8.90
159 9169 LANGENAEKEN DELPHINE 1:00:40 06:45 8.90
160 9167 MEYS SOPHIE 1:00:40 06:45 8.90
161 9036 MERTENS SARAH 1:00:42 06:45 8.89
162 9038 ALEXANDRE MANON 1:00:42 06:45 8.89
163 9516 PLANTIER MELINE 1:00:43 06:45 8.89
164 9439 CROIX CLAIRE 1:00:45 06:45 8.89
165 9021 CROIX HÉLÈNE 1:00:45 06:45 8.89
166 9549 CLOSON AURELIE 1:00:46 06:45 8.88
167 9548 HAC ANABELLE 1:00:46 06:45 8.88
168 9547 DEGRAEVE CHRISTEL 1:00:46 06:45 8.88
169 9108 ADAM BÉATRICE 1:00:48 06:45 8.88
170 9302 PUGLIESE AURÉLIE 1:00:49 06:46 8.88
171 9173 D'ARCONSO SABRINA 1:00:56 06:46 8.86
172 9172 LAETITIA NISOLLE 1:00:56 06:46 8.86
173 9077 VERLINDE MARIE-PAULE 1:01:06 06:47 8.84
174 9151 FAUJOUR MARIE 1:01:08 06:48 8.83
175 9270 GOOSSENS CHRISTEL 1:01:13 06:48 8.82
176 9054 PÉTRÉ ISABELLE 1:01:15 06:48 8.81
177 9477 LANSLOTS FRANCINE 1:01:16 06:49 8.81
178 9478 DETHIER FRANCIANNE 1:01:16 06:49 8.81
179 9504 HELMAN SANDRINE 1:01:23 06:49 8.79
180 9093 ERNON ANNE 1:01:34 06:51 8.77
181 9046 PICQUET MANON 1:01:36 06:51 8.76
182 9009 RODRIGUES ALBANE 1:01:37 06:51 8.76
183 9149 DEWALQUE DIANE 1:01:42 06:51 8.75
184 9218 BRAIPSON ALIX 1:01:58 06:53 8.71
185 9316 LEDAIN HÉLÈNE 1:02:12 06:55 8.68
186 9271 LECOCQ CÉCILE 1:02:13 06:55 8.68
187 9449 HURLET RACHEL 1:02:14 06:55 8.67
188 9074 OOMS MAGALI 1:02:15 06:55 8.67
189 9430 BOLLAND CATHERINE 1:02:15 06:55 8.67
190 9266 DEMOULIN SOPHIE 1:02:23 06:56 8.65
191 9272 GARAVELLOT DAPHNÉ 1:02:25 06:56 8.65
192 9045 PICQUET MAËLLE 1:02:26 06:56 8.65
193 9274 JABRANE FATIMA 1:02:29 06:57 8.64
194 9176 PASQUIER CHRISTELLE 1:02:37 06:58 8.62
195 9152 DENEE VALERIE 1:02:37 06:58 8.62
196 9483 LEGRAND VÉRONIQUE 1:02:44 06:58 8.61
197 9448 LONGTON FRANÇOISE 1:02:46 06:59 8.60
198 9025 DIEPENDAELE SOPHIE 1:02:50 06:59 8.59
199 9287 MACCAN STEFANIA 1:02:52 06:59 8.59
200 9285 MERTENS ANNE MARIE 1:02:52 06:59 8.59
201 9055 DANAUX ANNE-FRANCE 1:02:57 07:00 8.58
202 9019 NOËL DELPHINE 1:02:59 07:00 8.57
203 9006 GOBLET SOLENN 1:03:15 07:02 8.54
204 9346 DUBOIS MURIEL 1:03:19 07:02 8.53
205 9509 MARTELEZ NATHALIE 1:03:20 07:02 8.52
206 9067 TERREUR JULIE 1:03:22 07:03 8.52
207 9171 DEBONNET MARINE 1:03:22 07:03 8.52
208 9468 SCHAUS JULIE 1:03:23 07:03 8.52
209 9139 SOULARD-DELLICOUR KARINE 1:03:24 07:03 8.52
210 9079 COKAIKO MURIEL 1:03:24 07:03 8.52
211 9146 BERWAERTS LAURENCE 1:03:24 07:03 8.52
212 9489 ROEX MARIE 1:03:25 07:03 8.51
213 9206 VERVIER JULIE 1:03:33 07:04 8.50
214 9155 THISE CATHERINE 1:03:33 07:04 8.50
215 9091 STOCKIS CELINE 1:03:34 07:04 8.49
216 9156 LONFILS AURELE 1:03:36 07:04 8.49
217 9400 MALEMPRÉ ISABELLE 1:03:46 07:05 8.47
218 9255 STAINIER MARIE ANNE 1:03:46 07:05 8.47
219 9364 GOS TIFFANIE 1:03:47 07:05 8.46
220 9494 TROISFONTAINES LOLA 1:03:50 07:06 8.46
221 9492 DEVILLE AURÉLIE 1:03:50 07:06 8.46
222 9081 MICHAUX ISABELLE 1:03:50 07:06 8.46
223 9388 COLSON SABINE 1:03:52 07:06 8.45
224 9370 DEMEUTER SIBYLLE 1:03:53 07:06 8.45
225 9338 GILSON EMILIE 1:03:53 07:06 8.45
226 9404 DUPONT VÉRONIQUE 1:03:53 07:06 8.45
227 9371 REMION STEPHANIE 1:03:54 07:06 8.45
228 9342 PIRNAY MARIE ANNE 1:03:54 07:06 8.45
229 9415 BOTTA VALÉRIE 1:03:54 07:06 8.45
230 9473 NGUYEN THI THUY TIEN 1:03:54 07:06 8.45
231 9401 PEETERS FABIENNE 1:03:55 07:06 8.45
232 9482 SLUYSMANS CHRISTELLE 1:03:55 07:06 8.45
233 9481 SALVO MARIELLA 1:03:55 07:06 8.45
234 9424 PAUL MARIE HELENE 1:03:59 07:07 8.44
235 9041 BEKAERT LORELEI 1:03:59 07:07 8.44
236 9137 BERWAERTS CAMILLE 1:03:59 07:07 8.44
237 9042 BEKAERT ANNE-CATHERINE 1:04:01 07:07 8.43
238 9100 JADOT CHRISTINE 1:04:01 07:07 8.43
239 9076 BOSERET GERALDINE 1:04:09 07:08 8.42
240 9014 KRETTELS ELISA 1:04:10 07:08 8.41
241 9318 BOURGUIGNON HÉLÈNE 1:04:19 07:09 8.39
242 9335 MARSOUL JULIE 1:04:25 07:10 8.38
243 9373 TOURE COURAFIN 1:04:26 07:10 8.38
244 9317 MOLARA STÉPHANIE 1:04:33 07:10 8.36
245 9147 THONAR CAROLINE 1:04:36 07:11 8.36
246 9327 CLABODTS VALÉRIE 1:04:37 07:11 8.35
247 9475 QUENON CHARLOTTE 1:04:37 07:11 8.35
248 9313 LEDAIN CHARLOTTE 1:04:43 07:12 8.34
249 9267 FROGNET JULIETTE 1:04:44 07:12 8.34
250 9337 BRUGMANS MYRIAM 1:04:45 07:12 8.34
251 9476 ANCION CAROLE 1:04:46 07:12 8.34
252 9284 PAVONI DOMINIQUE 1:04:50 07:12 8.33
253 9419 GAYIB MEHDI 1:04:51 07:12 8.32
254 9089 OAKHILL CLAIRE 1:04:57 07:13 8.31
255 9119 BERTRAND NATHALIE 1:04:59 07:13 8.31
256 9094 MASERI FIORELLA 1:05:01 07:14 8.30
257 9300 ROMAN DOMINQUE 1:05:08 07:14 8.29
258 9304 LOMBARDO MARIE-JOSEE 1:05:12 07:15 8.28
259 9306 LAST SABRINA 1:05:13 07:15 8.28
260 9418 LAMBERT ERIKA 1:05:18 07:15 8.27
261 9231 COUSIN ESTELLE 1:05:20 07:16 8.26
262 9433 SIMON LAURENCE 1:05:22 07:16 8.26
263 12045 BALZANI LAURA 1:05:22 07:16 8.26
264 9088 DELCOURT PATRICIA 1:05:22 07:16 8.26
265 9099 DUBOURG SANDRINE 1:05:26 07:16 8.25
266 9106 SOUKKHASEUM THIPPHA 1:05:26 07:16 8.25
267 9517 NGUYEN THI KIM PHUNG 1:05:29 07:17 8.24
268 9399 COUNSON CHRISTELLE 1:05:33 07:17 8.24
269 9275 LISOIR MURIEL 1:05:40 07:18 8.22
270 9363 BLAISE ANNE 1:05:40 07:18 8.22
271 9367 SCHLUNDER MÉLANIE 1:05:44 07:18 8.21
272 9366 SCHLUNDER CATHERINE 1:05:44 07:18 8.21
273 9356 PICARD JULIE 1:05:46 07:19 8.21
274 9465 YE LING 1:05:56 07:20 8.19
275 9466 TSAMOURAS OLYMPIA 1:05:56 07:20 8.19
276 9320 FERONT AMANDINE 1:06:04 07:21 8.17
277 9072 DORMAL CHRISTELLE 1:06:04 07:21 8.17
278 9332 MASTRANTUONO LAETITIA 1:06:05 07:21 8.17
279 9387 MUTSERS SYLVIE 1:06:06 07:21 8.17
280 9398 KARURENZI DONATILLE 1:06:07 07:21 8.17
281 9397 LEJEUNE PASCALE 1:06:07 07:21 8.17
282 9251 MORDANT SOPHIE 1:06:14 07:22 8.15
283 9047 REMY CAMILLE 1:06:14 07:22 8.15
284 9461 DIEDEREN VIVIANE 1:06:19 07:22 8.14
285 9331 DE LEEUW MARIE-ALINE 1:06:21 07:22 8.14
286 9134 CINTORI AURÉLIE 1:06:26 07:23 8.13
287 9493 PEPIC BÉRINA 1:06:34 07:24 8.11
288 9230 LE DELLIOU FANNY 1:06:35 07:24 8.11
289 9232 ERMANNI ALICIA 1:06:35 07:24 8.11
290 9109 FUNKEN CHRISTEL 1:06:35 07:24 8.11
291 9268 WINTGENS JUSTINE 1:06:36 07:24 8.11
292 9462 WILMART ALISON 1:06:37 07:24 8.10
293 9244 VERJANS ELOÏSE 1:06:39 07:24 8.10
294 9381 MUTSERS VALÉRIE 1:06:39 07:24 8.10
295 9058 ROCCHI MIREILLE 1:06:41 07:25 8.10
296 9057 DORTU DOMINIQUE 1:06:41 07:25 8.10
297 9355 GUESSE BENEDICTE 1:06:41 07:25 8.10
298 9391 JEANTY EVE 1:06:46 07:25 8.09
299 9339 GILSON NATHALIE 1:06:47 07:25 8.08
300 9299 BRIQUET CHRISTELLE 1:06:58 07:27 8.06
301 9022 JASPAR ANNE 1:07:04 07:27 8.05
302 9023 MILIS ROXANE 1:07:04 07:27 8.05
303 9298 BELLEFROID JULIE 1:07:06 07:27 8.05
304 9344 ALBERT RAPHAELLE 1:07:09 07:28 8.04
305 9345 FREITAS DE ALMEIDA LUANA 1:07:09 07:28 8.04
306 9343 SIMONIS STÉPHANIE 1:07:10 07:28 8.04
307 9538 GEORGES JULIE 1:07:13 07:28 8.03
308 9101 BAILLY CLAIRE 1:07:14 07:28 8.03
309 9087 DUTRIEUX STÉPHANIE 1:07:14 07:28 8.03
310 9030 ROBERT AURÉLIE 1:07:21 07:29 8.02
311 9031 AWOUTERS PATRICIA 1:07:21 07:29 8.02
312 9333 DE PENARANDA CÉCILE 1:07:23 07:29 8.01
313 9443 BERNARD AUDE 1:07:29 07:30 8.00
314 9092 SPELGATTI AUDREY 1:07:38 07:31 7.98
315 9452 KEYSER ALYCIA 1:07:41 07:31 7.98
316 9212 AMABILE CHARLOTTE 1:07:43 07:32 7.97
317 9200 DONY CHARLOTTE 1:07:48 07:32 7.96
318 9262 ROELANDT MURIEL 1:07:50 07:32 7.96
319 9098 LENART LAURIE 1:07:52 07:33 7.95
320 9024 PETIT ANNE 1:07:56 07:33 7.95
321 9444 OLIVIER MARY-LINE 1:07:56 07:33 7.95
322 9408 DEVILLE ANAÏS 1:08:03 07:34 7.93
323 9254 BLAVIER STÉPHANIE 1:08:05 07:34 7.93
324 9407 IMPEDOVO MARISA 1:08:06 07:34 7.93
325 9310 BOZET MORGANE 1:08:08 07:34 7.92
326 9216 LEQUARRE FRÉDÉRIQUE 1:08:17 07:35 7.91
327 9472 COLLIGNON LARA 1:08:17 07:35 7.91
328 9513 TROIANI FLORENCE 1:08:17 07:35 7.91
329 9292 SOUGNEZ STEPHANIE 1:08:27 07:36 7.89
330 9479 VERAST VALENTINE 1:08:28 07:37 7.89
331 9044 DRADIN ANGELIQUE 1:08:29 07:37 7.88
332 9291 MOOREN FABIENNE 1:08:30 07:37 7.88
333 9154 DE SMEDT JACQUELINE 1:08:32 07:37 7.88
334 9526 SAMMIEZ ODILE 1:08:33 07:37 7.88
335 9202 DELHEZ MARIE JOSE 1:08:34 07:37 7.87
336 9201 LESOINNE STEPHANIE 1:08:35 07:37 7.87
337 9195 NARDOZI ANNA 1:08:37 07:38 7.87
338 9175 ROWIES CHRISTINE 1:08:40 07:38 7.86
339 9282 PEUSKENS SOPHIE 1:08:41 07:38 7.86
340 9170 MALHERBE CHRISTINE 1:08:43 07:38 7.86
341 9349 SAJOTTE ISABELLE 1:08:49 07:39 7.84
342 9357 KOUPRIANOFF AUDREY 1:08:49 07:39 7.84
343 9393 LACASSE NANCY 1:08:50 07:39 7.84
344 9394 LAËTITIA FRANSSEN 1:08:50 07:39 7.84
345 9351 PIQUERAY CELINE 1:08:52 07:39 7.84
346 9348 COLLARD SOPHIE 1:08:52 07:39 7.84
347 9350 BOURGUIGNON MARIE-PIERRE 1:08:52 07:39 7.84
348 9114 HUYNEN LAETITIA 1:09:10 07:41 7.81
349 9312 PAQUAY JENNIFER 1:09:29 07:43 7.77
350 9203 CARPENTIER MICHELE 1:09:36 07:44 7.76
351 9226 BURNOTTE NADIA 1:09:40 07:45 7.75
352 9085 MIGLIORE JULIE 1:09:51 07:46 7.73
353 9083 LERUSTE TYZIANA 1:09:52 07:46 7.73
354 9082 VANDEN BROECK ANITA 1:09:54 07:46 7.72
355 9135 LOOSBERGH JESSIKA 1:09:54 07:46 7.72
356 9544 ERTOGRHC NILGÜN 1:10:16 07:49 7.68
357 9110 PARTHOENS EMILIE 1:10:16 07:49 7.68
358 9290 JACQMIN STÉPHANIE 1:10:16 07:49 7.68
359 9260 DUVIVIER STEPHANIE 1:10:18 07:49 7.68
360 9289 MANDERLIER LAURIE 1:10:19 07:49 7.68
361 9011 DUBE FRANCE 1:10:20 07:49 7.68
362 9010 DOUBLALI SARAH 1:10:20 07:49 7.68
363 9204 MAZZON ANNE MARIE 1:10:21 07:49 7.67
364 9209 SWAAB EMMANUELLE 1:10:21 07:49 7.67
365 9257 GRECO ANTONIA 1:10:32 07:50 7.65
366 9406 NOËL CAROLINE 1:10:49 07:52 7.62
367 9457 VANDENBRIELE ILSE 1:10:50 07:52 7.62
368 9376 BLEUKX KATHLEEN 1:10:54 07:53 7.61
369 9207 LUCCHINI MARIA 1:10:58 07:53 7.61
370 9043 ANDRIES CÉCILE 1:11:04 07:54 7.60
371 9166 DONÀ BÉNÉDICTE 1:11:10 07:55 7.59
372 9174 FIGLIOLI MAGALI 1:11:20 07:56 7.57
373 9138 BERNAZANO MYRTILLE 1:11:20 07:56 7.57
374 9051 BABA LATCHMI 0:75 08:20 7.20
375 9233 GUIDÉ MADELEINE 1:11:24 07:56 7.56
376 9181 JARLOT VANESSA 1:11:26 07:56 7.56
377 9180 MELLA LAURIE 1:11:26 07:56 7.56
378 9237 DESMET DÉBORAH 1:11:46 07:59 7.52
379 9536 GERITS LAURIE 1:11:48 07:59 7.52
380 9535 PLENEVAUX MEGANE 1:11:48 07:59 7.52
381 9503 GÉRARD CHRISTELLE 1:11:51 07:59 7.51
382 9122 SCHMETS LAETITIA 1:12:06 08:01 7.49
383 9115 BACCINI DONA 1:12:06 08:01 7.49
384 9104 TIMMERMANS MANON 1:12:08 08:01 7.48
385 9248 DALIGAULT TATIANA 1:12:09 08:01 7.48
386 9103 WARNIER HÉLÈNE 1:12:10 08:01 7.48
387 9102 BARTZ AMANDINE 1:12:11 08:01 7.48
388 9459 HUDDLESTON JOANNA 1:12:13 08:02 7.48
389 9247 WEYL JUSTINE 1:12:13 08:02 7.48
390 9148 DORTU VICTORINE 1:12:13 08:02 7.48
391 9506 LEBURTON CHARLOTTE 1:12:13 08:02 7.48
392 9150 REDING CÉLINE 1:12:13 08:02 7.48
393 9177 CHAHIBA SARAH 1:12:18 08:02 7.47
394 9198 PLUMIER ISABELLE 1:12:19 08:02 7.47
395 9321 PASCALE DEBOUNY 1:12:19 08:02 7.47
396 9111 ROTOLO MARIA 1:12:19 08:02 7.47
397 9196 BASTIN CHRISTINE 1:12:22 08:03 7.46
398 9120 DEFOURNY BÉATRICE 1:12:27 08:03 7.45
399 9236 VORILLION KATHY 1:12:29 08:03 7.45
400 9078 CLOTUCHE CARINE 1:12:33 08:04 7.44
401 9451 GHIRO DOMINIQUE 1:12:41 08:05 7.43
402 9455 MOULIN ANNE-FLORENCE 1:12:42 08:05 7.43
403 9453 MARTIN FRANÇOISE 1:12:42 08:05 7.43
404 9210 SOUMAGNE JOSIANE 1:12:57 08:06 7.40
405 9015 PASQUAZZO MORGANE 1:13:25 08:10 7.35
406 9486 RAHIER RÉGINE 1:13:35 08:11 7.34
407 9485 GRIGNARD RACHEL 1:13:35 08:11 7.34
408 9142 S JONGERS ELODIE 1:13:45 08:12 7.32
409 9097 LENART MÉLINE 1:14:27 08:16 7.25
410 9480 LANGE CHRISTINE 1:14:47 08:19 7.22
411 9197 SCHMITS EMILIE 1:14:49 08:19 7.22
412 9319 SCHMITS CHARLOTTE 1:14:49 08:19 7.22
413 9005 DEVILLERS ANNE-SOPHIE 1:15:11 08:21 7.18
414 9032 MARNEFFE MARYLÈNE 1:15:14 08:22 7.18
415 9161 SAVONA ROSA 1:15:19 08:22 7.17
416 9158 BOUAMAR RITA 1:15:19 08:22 7.17
417 9084 KEITA FADIMA 1:15:31 08:24 7.15
418 9225 GONAY ALINE 1:15:46 08:25 7.13
419 9227 GUMIENNY NATHALIE 1:15:46 08:25 7.13
420 9278 BEELKENS YVETTE 1:16:20 08:29 7.07
421 9062 CRÈVECOEUR JULIE 1:16:28 08:30 7.06
422 9063 BOVY CHRISTELLE 1:16:28 08:30 7.06
423 9499 BELLO KAREN 1:17:23 08:36 6.98
424 9132 FUMAL MAITE 1:17:23 08:36 6.98
425 9531 GRAILET BERNADETTE 1:17:29 08:37 6.97
426 9258 GEORGES ISABELLE 1:17:29 08:37 6.97
427 9259 DELGUEDRE VÉRONIQUE 1:17:29 08:37 6.97
428 9164 JENNES FABIENNE 1:17:30 08:37 6.97
429 9325 PAQUAY AUDREY 1:18:35 08:44 6.87
430 9431 HEBLING NATHALIE 1:18:52 08:46 6.85
431 9131 TYPHON ALEXENDRA 1:18:52 08:46 6.85
432 9141 SILVESTRE THÉRÈSE 1:18:57 08:46 6.84
433 9328 DEVENTER VIRGINIE 1:19:40 08:51 6.78
434 9498 BEAUFAYS CHLOE 1:19:40 08:51 6.78
435 9329 THOMSIN AURELIE 1:19:40 08:51 6.78
436 9003 HANOZET DOMINIQUE 1:20:37 08:58 6.70
437 9004 MASSON VÉRONIQUE 1:20:37 08:58 6.70
438 9002 NEUVILLE MARINE 1:20:39 08:58 6.69